Regional Weather Roundup
Issued by NWS State College, PA

Home | Current Version | Previous Version | Text Only | Print | Product List | Glossary On
Versions: 1 2 3 4 5 6 7 8 9 10 11 12 13 14 15 16 17 18 19 20 21 22 23 24 25 26 27 28 29 30 31 32 33 34 35 36 37 38 39 40 41 42 43 44 45 46 47 48 49 50
000
ASUS41 KCTP 290110
RWRCTP

REGIONAL WEATHER ROUNDUP
NATIONAL WEATHER SERVICE STATE COLLEGE PA
900 PM EDT THU JUL 28 2016

Note: "fair" indicates few or no clouds below 12,000 feet with no
significant weather and/or obstructions to visibility.

* = STATION THAT DOES NOT REPORT PRECIPITATION /E.G. RAIN...SNOW...ETC/
    THUNDER OR FOG.

PAZ002>004-007>009-013>016-020>023-029>032-290200-
WESTERN PENNSYLVANIA

CITY           SKY/WX    TMP DP  RH WIND       PRES   REMARKS
ERIE           CLOUDY    76  64  66 S5        29.89S
MEADVILLE      CLOUDY    69  66  90 E5        29.93R
FRANKLIN*      CLOUDY    66  64  94 CALM      29.94S
NEW CASTLE     CLOUDY    72  67  84 CALM      29.93R
BEAVER COUNTY  MOCLDY    70  66  88 CALM      29.93R
BUTLER*        PTCLDY    70  64  83 CALM      29.95S
PITTSBURGH INT CLOUDY    71  67  87 CALM      29.92R
PITTSBURGH     LGT RAIN  71  67  87 W3        29.92R
INDIANA*       MOCLDY    72  70  94 CALM      29.96S FOG
LATROBE        LGT RAIN  70  70 100 CALM      29.93R
WASHINGTON CO* MOCLDY    70  66  88 CALM      29.92F
$$

PAZ004>006-010>012-017>019-024>028-033>037-041-042-045-046-049>053-290200-
CENTRAL PENNSYLVANIA

CITY           SKY/WX    TMP DP  RH WIND       PRES   REMARKS
BRADFORD       CLOUDY    70  66  87 SW6       29.96R
DUBOIS         CLOUDY    68  65  90 CALM      29.94S FOG
CLEARFIELD     LGT RAIN  70  67  90 CALM      29.94R
JOHNSTOWN      LGT RAIN  68  64  87 N5        29.96S VSB 3/4
ALTOONA        LGT RAIN  69  68  96 N5        29.93S
STATE COLLEGE  DRIZZLE   70  68  94 W5        29.92S
WILLIAMSPORT   CLOUDY    79  62  56 W10       29.86R
SELINSGROVE    LGT RAIN  74  74 100 SW3       29.89S
FT INDIANTOWN  NOT AVBL
CAPITAL CITY   LGT RAIN  76  71  85 E7        29.86F
HARRISBURG     LGT RAIN  75  73  93 E9        29.86F
YORK           LGT RAIN  74  72  93 CALM      29.88F
$$

PAZ038>040-043-044-047-048-054-055-060>062-067>071-290200-
EASTERN PENNSYLVANIA

CITY           SKY/WX    TMP DP  RH WIND       PRES   REMARKS
SCRANTON       CLOUDY    76  68  76 CALM      29.90S
MOUNT POCONO   LGT RAIN  69  67  93 W3        29.96S
ALLENTOWN      CLOUDY    75  71  87 CALM      29.90S
QUAKERTOWN*    CLOUDY    73  73 100 CALM      29.91R
READING        CLOUDY    73  71  93 CALM      29.88S
LANCASTER      LGT RAIN  74  72  93 N3        29.88F
COATESVILLE    CLOUDY    73  72  94 CALM      29.90F
POTTSTOWN      CLOUDY    73  72  96 NE3       29.90R
BLUE BELL      CLOUDY    72  72 100 CALM      29.88R
DOYLESTOWN     CLOUDY    72  72 100 N3        29.89R
WILLOW GROVE   NOT AVBL
NORTH PHILA    CLOUDY    76  72  87 CALM      29.89R
PHILADELPHIA   LGT RAIN  76  72  87 E5        29.88R
$$




USA.gov is the U.S. government's official web portal to all federal, state and local government web resources and services.